Regional Weather Roundup
Issued by NWS

Home | Current Version | Previous Version | Graphics & Text | Print | Product List | Glossary On
Versions: 1 2 3 4 5 6 7 8 9 10 11 12 13 14 15 16 17 18 19 20 21 22 23 24 25 26 27 28 29 30 31 32 33 34 35 36 37 38 39 40 41 42 43 44 45 46 47 48 49 50
180
ASUS44 KLIX 010110
RWRLA
LOUISIANA WEATHER ROUNDUP
NATIONAL WEATHER SERVICE NEW ORLEANS LA
800 PM CDT THU JUL 31 2014

NOTE: "FAIR" INDICATES FEW OR NO CLOUDS BELOW 12,000 FEET WITH NO
      SIGNIFICANT WEATHER AND/OR OBSTRUCTIONS TO VISIBILITY.
      SKY/WX - SKY CONDITION AND SIGNIFICANT WEATHER.
      TMP - AIR TEMPERATURE.    DP   - DEWPOINT TEMPERATURE.
      RH  - RELATIVE HUMIDITY.  PRES - PRESSURE.
      HX  - HEAT INDEX.         WCI  - WIND CHILL INDEX.

*  THESE STATIONS ARE NOT NWS OR FAA STATIONS AND ARE NOT UNDER
   NWS QUALITY CONTROL.

LAZ040-048-061>063-065-066-069-010200-
SOUTHEAST LOUISIANA

CITY           SKY/WX    TMP DP  RH WIND       PRES   REMARKS
N.O. AUDUBON     N/A     84  65  53 MISG        N/A
N.O. INTL ARPT MOCLDY    83  62  49 NE6       29.98F
N.O. LAKEFRONT MOCLDY    86  60  41 NE3       29.99S
N.O. DOWNTOWN* FAIR      84  64  51 SE6       29.99F
SLIDELL        MOCLDY    79  68  69 CALM      29.99S
BATON ROUGE    MOCLDY    80  68  66 NE5       29.98S
BOOTHVILLE     PTCLDY    82  66  58 NE3       30.00S
BELLE CHASSE   MOCLDY    82  68  62 E3        29.98F
BOGALUSA*      FAIR      79  67  67 NE3       30.02S
GALLIANO*      NOT AVBL
NEW ROADS*     FAIR      79  68  69 NE6       29.98S
GONZALES*      FAIR      82  71  69 CALM      29.97F
HAMMOND*       MOCLDY    81  64  57 CALM      30.01S
HOUMA*         PTCLDY    80  68  67 CALM      29.98S
PORT FOURCHON* CLEAR     82  68  61 SE6       30.01S

$$

LAZ041-044-053-054-010200-
SOUTHWEST LOUISIANA

CITY           SKY/WX    TMP DP  RH WIND       PRES   REMARKS
LAKE CHARLES   CLOUDY    83  74  74 S6        29.94S
LAFAYETTE      CLOUDY    82  74  76 VRB3      29.96F
PATTERSON      MOCLDY    79  75  89 S5        30.01S
SALT POINT       N/A     85  74  69 CALM      29.96F
NEW IBERIA     CLOUDY    83  71  67 SE5       29.97F
CHENAULT AIRPK PTCLDY    82  75  78 SE6       29.95F

$$

LAZ027-028-010200-
CENTRAL LOUISIANA

CITY           SKY/WX    TMP DP  RH WIND       PRES   REMARKS
FORT POLK      CLOUDY    79  72  79 E10       29.95S
ALEXANDRIA INT MOCLDY    79  69  71 E10       29.95S
ALEXANDRIA     MOCLDY    78  71  79 E3        29.97F

$$

LAZ001-002-010200-
NORTHWEST LOUISIANA

CITY           SKY/WX    TMP DP  RH WIND       PRES   REMARKS
SHREVEPORT     CLOUDY    73  70  90 E10       29.94F
BARKSDALE AFB  NOT AVBL
DTN SHREVEPORT CLOUDY    71  68  90 E10       29.95F

$$

LAZ014-016-010200-
NORTHEAST LOUISIANA

CITY           SKY/WX    TMP DP  RH WIND       PRES   REMARKS
MONROE         CLOUDY    73  68  84 NE5       30.00F
TALLULAH       CLOUDY    77  67  71 E3        30.01F

$$




USA.gov is the U.S. government's official web portal to all federal, state and local government web resources and services.